Location: Hannover
(52.3723°N, 9.7339°E)
Time: 10:23:47
(UTC+01:00)

ISS - Pass Details

Date: 13 November 2017
Orbit: 402 x 407 km, 51.6° (Epoch: 21 November)

Event Time Altitude Azimuth Distance (km) Brightness Sun altitude
Exits shadow 05:02:52 34° 125° (SE) 693 -2.3 -23.6°
Drops below altitude 10° 05:04:53 10° 113° (ESE) 1,455 -0.1 -23.3°
Sets 05:06:58 0° 110° (ESE) 2,313 1.2 -23.0°
